Hors Challenge

Le Trail De Bruxelles - Auderghem (6.00 km)

dimanche 17 octobre 2021

Vous pouvez trouver Le classement original sur : https://my.raceresult.com
 
LE TRAIL DE BRUXELLES - AUDERGHEM
DISTANCE : 6.00 km
dimanche 17 octobre 2021
 
Place dos NOM Catégorie Pl/cat temps temps/km Vitesse
01:00:00              
1 1089 GUILLAUME LO SH 1 0:23:11 03:52 15.53
2 1728 JEAN-MARC CULOT V2 1 0:23:12 03:52 15.52
3 5367 JERNEJ DRINOVEC SH 2 0:24:19 04:03 14.80
4 5251 PIERRE-LOÏC BACQ SH 3 0:24:20 04:03 14.79
5 5236 BERGER PRUNELLE SH 4 0:24:59 04:10 14.41
6 5403 THOMAS VAN BELLE SH 5 0:25:09 04:12 14.31
7 5376 JONAS CLAES SH 6 0:25:15 04:13 14.26
8 1996 AYDEN DELEERSNYDER JH 1 0:25:27 04:15 14.15
9 2012 JARNE THIELS JH 2 0:26:15 04:23 13.71
10 5365 ADRIEN MAZILLIER SH 7 0:26:40 04:27 13.50
11 1741 MANUEL GARCIA OCHANDO V1 1 0:27:58 04:40 12.87
12 1397 CLAIR ROBINSON SD 1 0:29:20 04:53 12.27
13 5405 GUILLAUME DE LE HOYE SH 8 0:29:37 04:56 12.16
14 1654 SOLÈNE AVRILLAUD SD 2 0:29:38 04:56 12.15
15 1742 ALINE DE COCK SD 3 0:29:44 04:57 12.11
16 1390 FLORIAN MARTIN SH 9 0:29:57 05:00 12.02
17 5391 GUY VASSART SH 10 0:30:05 05:01 11.97
18 1622 NOAH CUVELIERS JH 3 0:30:47 05:08 11.69
19 1332 FREDERK DE LEEUW SH 11 0:30:54 05:09 11.65
20 5383 NICOLAS TOUAUX V1 2 0:31:07 05:11 11.57
21 5392 MALAURIE DUTILLIEU SD 4 0:31:08 05:11 11.56
22 276 KURT CUVELIERS V2 2 0:31:25 05:14 11.46
23 1389 THIBAUD THERENE SH 12 0:31:26 05:14 11.45
24 1500 MAXIM CORNET SH 13 0:31:27 05:15 11.45
25 42 JILL PONET SD 5 0:31:53 05:19 11.29
26 1586 TINE LIEKENS SD 6 0:31:54 05:19 11.29
27 1436 LOUIS GARBIT JH 4 0:32:02 05:20 11.24
28 1868 NATHAN DEWAELE SH 14 0:32:02 05:20 11.24
29 1886 TOM THIELS V1 3 0:32:10 05:22 11.19
30 1887 LIANA THIELS JF 1 0:32:11 05:22 11.19
31 2052 SIMON BOTHOF SH 15 0:32:15 05:23 11.16
32 5419 RUBEN ROOSEN JH 5 0:32:26 05:24 11.10
33 5281 JC JORGENSEN V1 4 0:32:40 05:27 11.02
34 5359 ESTEBAN CARLOS GUILLERMO FADEL V1 5 0:32:52 05:29 10.95
35 1598 PABLO JACOME ALVAREZ SH 16 0:32:58 05:30 10.92
36 1623 JACQUES VANDEUREN V1 6 0:33:24 05:34 10.78
37 1710 SOPHIE CORNELIS SD 7 0:33:28 05:35 10.76
38 2035 MJURIEL VANUFFELEN A1 1 0:33:32 05:35 10.74
39 5404 SPENCER JOLLY SH 17 0:33:47 05:38 10.66
40 1358 CLÉMENT QUOIX JH 6 0:33:49 05:38 10.65
41 5410 STEPHEN TURNER SH 18 0:33:49 05:38 10.65
42 5411 MARIA KOOMEN SD 8 0:33:51 05:39 10.64
43 5418 TIM ROOSEN V1 7 0:33:59 05:40 10.59
44 1766 ERWIN DILISSEN V1 8 0:34:17 05:43 10.50
45 1570 ANNE BOTTINE SD 9 0:34:18 05:43 10.50
46 5375 CEDERIQUE COOLS SH 19 0:34:24 05:44 10.47
47 1398 THÉO POISSONNIER SH 20 0:34:26 05:44 10.45
48 5389 MARIE MOREAU SD 10 0:34:29 05:45 10.44
49 5339 ABDOULGHAFAR OMARI SH 21 0:34:30 05:45 10.43
50 1391 INES SAKOUT SD 11 0:34:40 05:47 10.38
51 1229 JOSE SIMO VERDU V4 1 0:34:47 05:48 10.35
52 1132 WILLEKE DELANOTE SD 12 0:34:52 05:49 10.33
53 1115 HANNE DELANOTE SD 13 0:34:54 05:49 10.32
54 5425 MAEVA BRAECKEVELT SD 14 0:35:11 05:52 10.23
55 1207 MARTON SZABO SH 22 0:35:16 05:53 10.21
56 1845 REINOUT SPITAELS SH 23 0:35:23 05:54 10.17
57 1846 LANDER VANDER LINDEN SH 24 0:35:23 05:54 10.17
58 1438 PIERRE GARBIT V1 9 0:35:27 05:55 10.16
59 5402 LÉA ROULLEAU SD 15 0:35:35 05:56 10.12
60 5401 CHARLOTTE LEMAITRE A1 2 0:35:36 05:56 10.11
61 5400 JULIETTE LEMAITRE JF 2 0:35:36 05:56 10.11
62 5232 JENEVA PATTERSON A2 1 0:35:49 05:58 10.05
63 1774 KENNY COENRAETS SH 25 0:35:55 05:59 10.02
64 1221 VOUKALIS GIANNOS SH 26 0:35:58 06:00 10.01
65 5379 ELISE DEROME JF 3 0:35:59 06:00 10.00
66 5378 GARANCE NOBECOURT JF 4 0:36:04 06:01 9.98
67 5424 NAUSICA SALA SD 16 0:36:05 06:01 9.98
68 5395 FREDERICK DETEMMERMAN V1 10 0:36:06 06:01 9.97
69 5423 ANTON EVENS SH 27 0:36:07 06:01 9.97
70 1950 STÉPHANE STIERNET V1 11 0:36:12 06:02 9.94
71 5407 SARA VERRIJCKEN SD 17 0:36:26 06:04 9.88
72 1231 CORINNA BLASSE SD 18 0:36:42 06:07 9.81
73 5406 ROBRECHT VAN DRIEL SH 28 0:36:48 06:08 9.78
74 1236 VÉRONIQUE SIMONS A1 3 0:36:49 06:08 9.78
75 5385 CHRISTINE ROSSIGNOL SD 19 0:36:56 06:09 9.75
76 1472 EMMANOUIL PATAVOS SH 29 0:36:58 06:10 9.74
77 1418 LENNART CORMANN SH 30 0:36:58 06:10 9.74
78 1727 INDIRA DE GRAAF SD 20 0:36:59 06:10 9.73
79 1726 JOCELYN TURTON SH 31 0:36:59 06:10 9.73
80 1485 STEVEN VAN DEN BERGHE V1 12 0:36:59 06:10 9.73
81 2004 CÉLINE HANNECART SD 21 0:37:04 06:11 9.71
82 1561 OLGA NOWICKA SD 22 0:37:05 06:11 9.71
83 5351 TIM ZAGERS SH 32 0:37:07 06:11 9.70
84 5381 TÉA VANDER BIEST JF 5 0:37:08 06:11 9.69
85 2011 LILY-ROSE PEETERS JF 6 0:37:08 06:11 9.69
86 2010 STEN ZAGERS JH 7 0:37:08 06:11 9.69
87 1542 SANDRINE ALLADIO A2 2 0:37:09 06:11 9.69
88 1923 BENOIT DE BRUYN V2 3 0:37:22 06:14 9.63
89 2050 LINDSAY VANDAMME A1 4 0:37:25 06:14 9.62
90 2049 BOB VANDAMME V1 13 0:37:25 06:14 9.62
91 1228 MARIA SIMO FALGAS SD 23 0:37:29 06:15 9.60
92 1417 JUSTINE RADEL SD 24 0:37:33 06:15 9.59
93 1898 LORENZO BOSETTI SH 33 0:37:35 06:16 9.58
94 1088 AGNESE OLMATI SD 25 0:37:36 06:16 9.57
95 1743 ELINE VAN NISTELROOIJ SD 26 0:37:43 06:17 9.54
96 1934 ALESSIA CLAUSSE SD 27 0:37:52 06:19 9.51
97 1821 MANON VOISIN SD 28 0:37:55 06:19 9.49
98 1862 NICOLAS CARBONNELLE SH 34 0:37:58 06:20 9.48
99 1740 MARCEL DUEZ JF 7 0:37:59 06:20 9.48
100 1739 ESTHER STUAERT SD 29 0:38:01 06:20 9.47
101 1443 CHRISTINE LAFFONT A3 1 0:38:04 06:21 9.46
102 1501 NICO DE RUYTER V1 14 0:38:12 06:22 9.42
103 1892 AZIZ SOPI V1 15 0:38:12 06:22 9.42
104 5422 MARIE BOLIS SD 30 0:38:14 06:22 9.42
105 5414 THÉO VEYSSEYRE SH 35 0:38:17 06:23 9.40
106 5416 JULIETTE LE CORRE SD 31 0:38:18 06:23 9.40
107 5415 NOLAN PHILIPPE SH 36 0:38:20 06:23 9.39
108 1657 CARMEN CANO SILES SD 32 0:38:20 06:23 9.39
109 1572 BÉNÉDICTE CLEDA A1 5 0:38:22 06:24 9.38
110 1509 SARAH GRÉGOIRE SD 33 0:38:23 06:24 9.38
111 1951 NHU TIEN NGUYEN-NHU V1 16 0:38:37 06:26 9.32
112 1426 MARICICA FLOREA SD 34 0:38:45 06:28 9.29
113 1661 ELISAVET SPITADAKI SD 35 0:38:46 06:28 9.29
114 1773 SARA MARIËN SD 36 0:38:47 06:28 9.28
115 1902 NATACHA DEBAIZE A2 3 0:38:54 06:29 9.25
116 1532 WOUTER PANS SH 37 0:38:54 06:29 9.25
117 1839 NORA DE WINDT A1 6 0:39:05 06:31 9.21
118 1922 JEHANNE DE WALQUE A2 4 0:39:26 06:34 9.13
119 1210 BEGONYA OTAL A1 7 0:39:29 06:35 9.12
120 1711 CÉLINE SABLON SD 37 0:39:37 06:36 9.09
121 1712 SHANAH BRACONIER SD 38 0:39:39 06:36 9.08
122 1213 ALEXANDRU PANDUREAN SH 38 0:39:40 06:37 9.08
123 5356 EMILIE MATHY SD 39 0:39:46 06:38 9.05
124 1784 EMANUELA FELICI A1 8 0:39:46 06:38 9.05
125 5398 THOMAS VAN LOOKEN SH 39 0:39:56 06:39 9.02
126 1587 EMILIO BRUNETTI SH 40 0:40:00 06:40 9.00
127 5421 PRANAV RAM SH 41 0:40:01 06:40 9.00
128 1867 MARIE DEGLASSE SD 40 0:40:06 06:41 8.98
129 1425 OZGUN TAS SH 42 0:40:13 06:42 8.95
130 1599 FRANCESCA SIMEONE SD 41 0:40:18 06:43 8.93
131 1036 MURIEL LIBOIS A1 9 0:40:19 06:43 8.93
132 5420 ANN ROETS A1 10 0:40:28 06:45 8.90
133 5396 PAULINE RONNEL SD 42 0:40:32 06:45 8.88
134 5397 FRANÇOIS DESSART SH 43 0:40:33 06:45 8.88
135 1247 DOROTA DLOUCHY SULIGA A1 11 0:40:37 06:46 8.86
136 5394 PATRICE EDOUARD V2 4 0:40:40 06:47 8.85
137 1193 LAURA LAMBOUR SD 43 0:40:47 06:48 8.83
138 1533 BAJOIT BAJOIT SD 44 0:40:49 06:48 8.82
139 1530 CECILE HUARD A1 12 0:40:50 06:48 8.82
140 1277 MELISSA VERMEULEN SD 45 0:40:51 06:49 8.81
141 1494 VINCENT SOONG SH 44 0:40:58 06:50 8.79
142 1352 SANDRINE DEVRIESE A1 13 0:40:58 06:50 8.79
143 1896 XAVIER BONNORON V1 17 0:41:01 06:50 8.78
144 5102 CYRIL COULON SH 45 0:41:06 06:51 8.76
145 1039 MARTA CAMPOS A1 14 0:41:10 06:52 8.74
146 5382 ANGELA PRUDENTINO SD 46 0:41:15 06:52 8.73
147 1893 CHRISTEL JOASSIN SD 47 0:41:17 06:53 8.72
148 2003 HANNELORE ANCIAUX SD 48 0:41:18 06:53 8.72
149 1894 LOÏC SCAILLET JOASSIN JH 8 0:41:18 06:53 8.72
150 1895 XAVIER ARNOULD V1 18 0:41:19 06:53 8.71
151 5431 ANNE HECHTERMANS SD 49 0:41:27 06:55 8.69
152 5430 MARIE HECHTERMANS SD 50 0:41:33 06:55 8.66
153 2048 LUDMILA NICULITA SD 51 0:41:43 06:57 8.63
154 5237 STAMATIA KREMMYDA A1 15 0:41:47 06:58 8.62
155 1606 LAURA PAREDIS SD 52 0:41:50 06:58 8.61
156 5374 CATHERINE JADOT A1 16 0:41:57 07:00 8.58
157 2002 CATHERINE ADAM A1 17 0:41:57 07:00 8.58
158 1218 STEPHANE HOGAN V2 5 0:42:13 07:02 8.53
159 1057 KELLY DE CALUWE SD 53 0:42:16 07:03 8.52
160 5380 MORGANE DUFOUR JF 8 0:42:20 07:03 8.50
161 1212 DAVID GANCBERG V2 6 0:42:34 07:06 8.46
162 1353 EMILIE DE KERCHOVE A1 18 0:42:43 07:07 8.43
163 5320 IREM METIN A1 19 0:42:44 07:07 8.42
164 1209 STEFFI QUINOT SD 54 0:42:57 07:10 8.38
165 1456 STÉPHANIE ROISIN SD 55 00:42:59 07:10 8.38
166 1455 AMIK LEMAIRE SH 46 00:42:59 07:10 8.38
167 5366 ODILE MICHIELS A1 20 00:43:04 07:11 8.36
168 1613 CAROLINA CURCA SD 56 00:43:04 07:11 8.36
169 5429 FRANCES VAN DEN BOGAERT SD 57 00:43:10 07:12 8.34
170 5428 AMELIE ARRAZOLA DE OÑATE SD 58 0:0.03 00:00 720000.00
171 1625 DIDIER BOUDENGEN SH 47 00:43:15 07:12 8.32
172 1626 CINDY STICHELMANS A1 21 00:43:18 07:13 8.31
173 1794 ALICE AVRIL SD 59 00:43:34 07:16 8.26
174 1437 ISABEL CASTANO A2 5 00:43:43 07:17 8.23
175 1146 ALICIA EGEA VANDEPETTE SD 60 00:43:44 07:17 8.23
176 1183 ALBA GIL SD 61 00:43:46 07:18 8.23
177 5387 AXEL DAVISTER SH 48 00:43:55 07:19 8.20
178 1471 DIMITRA PAPANIKOLAOU SD 62 00:44:03 07:20 8.17
179 5321 ILSE TAILDEMAN A1 22 00:44:06 07:21 8.16
180 5408 LÉA D'AMORE SD 63 00:44:15 07:23 8.14
181 1211 ANNA PAPAGEORGIOU A1 23 00:44:16 07:23 8.13
182 5390 GUY VASSART V2 7 00:44:17 07:23 8.13
183 2015 DERYA ERBAS A1 24 00:44:36 07:26 8.07
184 5409 SILKE HOEBEEK A1 25 00:44:59 07:30 8.00
185 1324 ANA MARIA GRIGORE SD 64 00:45:19 07:33 7.94
186 1703 GAËLLE NYSSEN SD 65 00:45:33 07:35 7.90
187 2013 CLÉMENTINE GAUDIO SD 66 00:45:49 07:38 7.86
188 1046 FREDERICO BERNARDES SILVA TAVARES CADETE SH 49 00:45:51 07:39 7.85
189 1330 ALENA BAUR SD 67 00:46:11 07:42 7.80
190 1342 THOMAS PRASTHOFER SH 50 00:46:14 07:42 7.79
191 1571 JAN STADLER SH 51 00:46:14 07:42 7.79
192 1949 FRANÇOIS WILKIN V2 8 00:46:17 07:43 7.78
193 1981 KAROLIEN DRIESEN A1 26 00:46:42 07:47 7.71
194 1908 ANDA PASCAL SD 68 00:46:46 07:48 7.70
195 1725 SARAH YARHZOU SD 69 00:47:03 07:50 7.65
196 5369 MATTHIAS KAKUDJI JH 9 00:47:07 07:51 7.64
197 1769 ESTER BOLLEN A1 27 00:47:24 07:54 7.59
198 1767 ANNEMIE REYNDERS SD 70 00:47:27 07:55 7.59
199 1061 THANDO NICOLE-ROSE MPOFU SD 71 00:47:27 07:55 7.59
200 5368 JOSÉPHINE DE GRAND RY A1 28 00:47:31 07:55 7.58
201 1373 CLARA CASTELLI SD 72 00:47:35 07:56 7.57
202 5427 GALA GOSSET SD 73 00:47:41 07:57 7.55
203 5426 QUENTIN DANHIER SH 52 00:47:42 07:57 7.55
204 1465 SOPHIE LIGOT SD 74 00:48:05 08:01 7.49
205 5370 SARAH STIJNEN A1 29 00:48:39 08:07 7.40
206 1295 TANIA KUYPERS A2 6 00:49:03 08:11 7.34
207 1508 JULIE FRANÇOIS SD 75 00:49:09 08:11 7.32
208 5412 JANA WALDER SD 76 00:49:24 08:14 7.29
209 5413 ELENA MANELLA SD 77 00:49:24 08:14 7.29
210 1618 FAIROUZ KHELIL SD 78 00:50:10 08:22 7.18
211 5293 LAURENCE MEEUS A1 30 00:50:12 08:22 7.17
212 5289 KINDA YANTOUR A1 31 00:51:08 08:31 7.04
213 5388 TRISTAN MERCIER SH 53 00:51:21 08:33 7.01
214 5386 SUZANNE FABIANO A1 32 00:51:22 08:34 7.01
215 5417 FIRDAOUSSE OMARI SD 79 00:51:59 08:40 6.93
216 1786 KAREN CASTRYCK A1 33 00:53:37 08:56 6.71
217 5337 CHRISTINA BRUNNENKAMP A1 34 00:54:19 09:03 6.63
218 5345 CHRISTEL VAN DEN EIJNDEN A2 7 00:54:40 09:07 6.59
219 1531 AYSUN GULMEN SD 80 00:54:52 09:09 6.56
220 1232 RAMIRO PENEDO SH 54 00:54:55 09:09 6.56
221 2044 CHRISTINE HERALY A1 35 00:56:03 09:20 6.42
222 1259 CLAIRE HERVEG A2 8 00:56:47 09:28 6.34
223 1246 CAROLINE DELMEIRE A2 9 00:59:48 09:58 6.02
224 1897 ERICA BEZZI A1 36 01:01:45 10:17 5.83
225 1901 LÉVI BOSETTI JH 10 01:01:46 10:18 5.83
226 1900 LÉO BOSETTI JH 11 01:01:46 10:18 5.83
227 1899 LUCIE BAKOLAS SD 81 01:01:46 10:18 5.83
228 1543 SÉVERIN SCHNEPP SH 55 01:25:55 14:19 4.19
               
Nos dernières videos